Location: Kellogg
(38.0159°N, 90.0546°W)
Time: 18:31:53
(UTC+00:00)

S-56A Canister/Altair - Pass Details

Date: 20 September 2024
Orbit: 636 x 2487 km, 38.9° (Epoch: 04 October)

Event Time Altitude Azimuth Distance (km) Brightness Sun altitude
Rises 05:13:40 0° 282° (WNW) 4,060 11.5 -50.0°
Enters shadow 05:14:50 - 278° (W) 3,728 11.2 -50.1°
Reaches altitude 10° 05:16:23 10° 273° (W) 3,328 - -50.2°
Maximum altitude 05:23:57 34° 212° (SSW) 2,508 - -50.5°
Drops below altitude 10° 05:34:26 10° 154° (SSE) 4,632 - -50.8°
Sets 05:39:03 0° 146° (SE) 5,856 - -51.0°
